• Processing (Info)

  • MPEC 2023-X236 : 2023 XQ10

    The following Minor Planet Electronic Circular may be linked-to from your own Web pages, but must not otherwise be redistributed electronically.

    A form allowing access to any MPEC is at the bottom of this page.


    Read MPEC 2023-X235 Read MPEC 2023-X237


    M.P.E.C. 2023-X236                            Issued 2023 December 12, 06:46 UT
    
         The Minor Planet Electronic Circulars contain information on unusual
             minor planets, routine data on comets and natural satellites,
             and occasional editorial announcements.  They are published
        on behalf of Division F of the International Astronomical Union by the
              Minor Planet Center, Smithsonian Astrophysical Observatory,
                              Cambridge, MA 02138, U.S.A.
    			  
                 Prepared using the Tamkin Foundation Computer Network
    
                                  MPC@CFA.HARVARD.EDU
                URL https://www.minorplanetcenter.net/    ISSN 1523-6714
    
                                    2023 XQ10                                
    
    
    Observations:
         K23X10Q*KC2023 12 11.16336 04 55 53.15 -45 40 09.2          19.4 GVEX236W94
         K23X10Q KC2023 12 11.16948 04 55 53.36 -45 40 53.7          19.0 GVEX236W94
         K23X10Q KC2023 12 11.17562 04 55 53.72 -45 41 39.1          19.8 GVEX236W94
         K23X10Q KC2023 12 11.25352 04 55 57.25 -45 50 01.6          19.1 GVEX236X10
         K23X10Q KC2023 12 11.25888 04 55 57.64 -45 50 31.9          18.9 GVEX236X10
         K23X10Q KC2023 12 11.26423 04 55 58.03 -45 51 02.2                VEX236X10
         K23X10Q KC2023 12 11.31031 04 56 03.00 -45 54 58.4                VEX236X10
         K23X10Q KC2023 12 11.31567 04 56 03.70 -45 55 24.5                VEX236X10
         K23X10Q KC2023 12 11.32101 04 56 04.51 -45 55 49.5                VEX236X10
         K23X10Q |C2023 12 12.13932005 00 18.980-47 03 53.90         20.3 GVEX236807
         K23X10Q |C2023 12 12.14425005 00 18.890-47 04 14.00         20.2 GVEX236807
         K23X10Q |C2023 12 12.14918005 00 18.770-47 04 34.00         20.3 GVEX236807
         K23X10Q KC2023 12 12.24622 05 00 13.83 -47 10 47.9          19.4 GVEX236X10
         K23X10Q KC2023 12 12.25156 05 00 13.70 -47 11 01.7          20.2 GVEX236X10
         K23X10Q KC2023 12 12.25689 05 00 13.65 -47 11 16.6          19.9 GVEX236X10
    
    Observer details:
    807 Cerro Tololo Observatory, La Serena.  Observers T. Linder, R. Holmes, L.
        Horn.  0.61-m f/11 Ritchey-Chretien + CCD.
    W94 MAP, San Pedro de Atacama.  Observers A. Maury, G. Attard.  Measurers A.
        Maury, G. Attard, D. Parrott, F. Signoret, J.-M. Mari.  0.36-m f/1.9
        Schmidt astrograph + CCD.
    X10 OVTLN, San Pedro de Atacama.  Observers A. Maury, G. Attard, F. Signoret.
        Measurers A. Maury, G. Attard, D. Parrott, J.-M. Mari, F. Signoret.
        0.50-m f/4  reflector + CCD.
    
    Orbital elements:
    2023 XQ10                                                Earth MOID = 0.0006 AU
    Epoch 2023 Sept. 13.0 TT = JDT 2460200.5                MPC                     
    M 327.28376              (2000.0)            P               Q                  
    n   0.88460142     Peri.  124.62437     +0.89386228     -0.32431831             
    a   1.0747422      Node   256.05401     +0.22908144     +0.92390318             
    e   0.1266948      Incl.   18.60021     +0.38539840     +0.20302843             
    P   1.11           H   26.27          G   0.15           U   8                  
    Residuals in seconds of arc
    231211 W94  0.4-  0.5-    231211 X10  0.7-  0.3-    231212 807  0.1+  0.1+
    231211 W94  0.5-  0.5+    231211 X10  0.4-  1.2+    231212 807  0.2+  0.1+
    231211 W94  1.0+  0.0     231211 X10  0.9-  0.7+    231212 X10  0.1+  0.0
    231211 X10  0.4-  0.2+    231211 X10  0.7-  0.8+    231212 X10  0.3-  0.5+
    231211 X10  0.4-  0.2+    231212 807  0.1-  0.1-    231212 X10  0.0   0.4-
    
    Ephemeris:
    2023 XQ10                a,e,i = 1.07, 0.13, 19                  q = 0.9386
    Date    TT    R. A. (2000) Decl.     Delta      r    Elong.  Phase     V
    2023 11 12    17 05 41.3 +47 54 07   0.1568  0.9496    70.6   100.4    25.8
    ...
    2023 11 27    17 10 36.3 +49 51 55   0.07039 0.9676    72.2   103.9    24.3
    ...
    2023 12 05    17 19 11.9 +52 26 16   0.02247 0.9801    75.1   103.6    21.8
    ...
    2023 12 11    04 54 46.6 -45 14 40   0.01399 0.9901   111.8    67.5    19.4
    2023 12 12    04 59 41.0 -46 52 55   0.02001 0.9917   110.0    68.9    20.2
    2023 12 13    05 02 26.7 -47 44 21   0.02604 0.9934   109.1    69.5    20.8
    ...
    2023 12 19    05 08 13.9 -49 09 27   0.06208 1.0039   107.0    69.6    22.7
    ...
    2023 12 27    05 10 55.9 -49 04 58   0.1094  1.0189   105.9    68.1    23.9
    ...
    2024 01 11    05 15 44.3 -47 29 07   0.1938  1.0493   104.6    65.1    25.1
    
    A. U. Tomatic                (C) Copyright 2023 MPC           M.P.E.C. 2023-X236
    


    Read MPEC 2023-X235 Read MPEC 2023-X237


    MPEC number:

    Enter an MPEC number in one of the following forms:

    • 1997-B01 (the full form)
    • J97B01 (the packed version of the full form)
    • B01 (the abbreviated form)